NOAA 17 DEB, 48742

Orbit data source: Space-Track

NOAA 17 DEB, 48742 is space debris in SSO originally from a launch on Mon, 24 Jun 2002 UTC launched from the Air Force Western Test Range (AFWTR). Debris objects in space refer to the collection of defunct objects orbiting the Earth. Examples of debris include non-operational satellites, rocket bodies, and fragments generated from explosions, collisions, or faulty payload assembly.

Loading next visibility...
Identifier
48742, 2002-032CB
Orbit
SSO
Country
Flag of USUS
Related business
Manufacturer
Unknown
Mission
Spacecraft
Bus & Motor
Unknown
Mass
Unknown
Launch date (UTC)
2002-06-24 (23 years ago)
Launch vehicle
Unknown
Launch site
Air Force Western Test Range (AFWTR)
Object type
Payload
Rocket body
Debris
Shape & HBR
Unknown shape, 0.1 m
Radar Cross Section
Small (<0.1 m²)

Expand to show TLE details & history
Last TLE update: 1 day ago

TLE from 1 day ago
0 NOAA 17 DEB
1 48742U 02032CB  25348.69604291  .00008105  00000-0  19663-2 0  9992
2 48742  98.7665 330.0676 0014999 140.7072 219.5214 14.53117198247205
Epoch: 2025-12-14T16:42Z
TLE epoch observation values (Epoch: 2025-12-14T16:42:18.107Z)
Latitude
-0.00001°
Longitude
-4.1131°
Altitude
726.659 km
Speed
7.488 km/s
True Right ascension
22h 00m 16s
True Declination
0° 00' 00"
Sunlit
Object was in daylight at epoch
Visualization orbit readout
Latitude
Unknown
Longitude
Unknown
Altitude
Unknown
Speed
Unknown
Apparent Right ascension
Unknown
Apparent Declination
Unknown
Sunlit
N/A
Visualization observer readout
Local Sidereal Time
22:53:57
Azimuth
Unknown
Elevation
Unknown
Doppler factor
Unknown
Orbital elements
Apogee altitude
723.238 km
Perigee altitude
701.967 km
Semi-major axis
7,090.74 km
Eccentricity
0.0015
Inclination
98.7665°
RAAN
330.0676°
Arg. of periapsis
140.7072°
True anomaly
219.41218°
Mean anomaly
219.5214°
Eccentric anomaly
219.46678°
Mean motion
3.63501 °/min
Orbital period
99.04 mins
BSTAR
0.0019663
Loading maneuver chart data...
Computing Atmospheric mass density...
Loading historical data...
Loading historical data...
Loading historical data...
Loading historical data...
Loading historical data...
Loading historical data...
Loading historical data...

Documentation

Showing up to 5 results
|